FW3072 Weather Reports


Display with metric or nautical units.
time (UTC)temp
F
wind
direction
speed
MPH
gust
MPH
rain 1hr
in
rain 24hr
in
rain mn
in
humidity
%
barometer
mb
20260508170203 53 340 2.0 11.0 0.00 0.20 0.09 57 1011.9
20260508165202 53 296 4.0 10.0 0.00 0.20 0.09 58 1011.9
20260508164224 53 344 4.0 13.0 0.00 0.20 0.09 61 1012.0
20260508163202 53 311 6.0 11.0 0.00 0.20 0.09 59 1012.2
20260508162202 52 302 6.0 15.0 0.00 0.20 0.09 65 1012.3
20260508161202 52 296 6.0 9.0 0.00 0.20 0.09 70 1012.4
20260508160202 51 289 4.0 13.0 0.00 0.20 0.09 67 1012.5
20260508155203 50 282 5.0 12.0 0.00 0.20 0.09 72 1012.3
20260508154203 50 293 6.0 9.0 0.00 0.20 0.09 73 1012.6
20260508153203 49 319 4.0 12.0 0.00 0.20 0.09 77 1012.7
20260508152202 49 301 5.0 10.0 0.00 0.20 0.09 80 1012.8
20260508151204 48 317 2.0 5.0 0.00 0.20 0.09 85 1012.8
20260508150202 47 309 3.0 8.0 0.00 0.20 0.09 86 1012.8
20260508145203 46 257 1.0 8.0 0.00 0.20 0.09 89 1012.7
20260508144202 45 304 3.0 8.0 0.00 0.20 0.09 90 1012.8
20260508143202 44 292 3.0 5.0 0.00 0.20 0.09 91 1012.8
20260508142203 44 279 2.0 7.0 0.00 0.20 0.09 92 1012.7
20260508141202 43 169 0.0 4.0 0.00 0.20 0.09 92 1012.6
20260508140204 43 254 0.0 2.0 0.00 0.20 0.09 92 1012.6
20260508135223 43 254 1.0 3.0 0.00 0.20 0.09 92 1012.8
20260508134202 43 254 2.0 3.0 0.00 0.20 0.09 93 1012.8
20260508133202 42 250 0.0 2.0 0.00 0.20 0.09 93 1012.8
20260508132203 42 249 0.0 1.0 0.00 0.20 0.09 93 1012.8
20260508131202 41 250 0.0 0.0 0.00 0.20 0.09 92 1012.7
20260508130203 41 249 0.0 2.0 0.00 0.20 0.09 92 1012.7
20260508125202 41 250 0.0 0.0 0.01 0.20 0.09 92 1012.7
20260508124204 40 249 0.0 1.0 0.01 0.20 0.09 92 1012.7
20260508123202 40 250 0.0 0.0 0.01 0.20 0.09 92 1012.5
20260508122246 40 250 0.0 3.0 0.01 0.20 0.09 92 1012.5
20260508121202 40 292 0.0 0.0 0.01 0.20 0.09 92 1012.5
20260508120203 40 291 0.0 1.0 0.00 0.19 0.08 92 1012.6
20260508115204 40 292 0.0 3.0 0.06 0.19 0.08 92 1012.5
20260508114202 40 287 0.0 7.0 0.06 0.19 0.08 92 1012.7
20260508113224 40 291 1.0 7.0 0.05 0.18 0.07 92 1012.6
20260508112202 41 291 2.0 9.0 0.03 0.16 0.05 92 1012.6
20260508111226 41 266 1.0 4.0 0.02 0.15 0.04 92 1012.3
20260508110203 41 287 2.0 3.0 0.00 0.13 0.02 92 1012.1
20260508104202 41 257 0.0 0.0 0.02 0.13 0.02 92 1011.5
20260508103202 42 257 0.0 0.0 0.01 0.12 0.01 92 1011.5
20260508102225 42 257 0.0 1.0 0.01 0.12 0.01 92 1011.5
20260508101202 42 256 0.0 2.0 0.01 0.12 0.01 92 1011.4
20260508100203 42 246 0.0 0.0 0.01 0.12 0.01 92 1011.3
20260508095202 42 246 0.0 0.0 0.00 0.11 0.00 92 1011.3
20260508094203 42 246 0.0 0.0 0.00 0.11 0.00 92 1011.3
20260508093202 42 246 0.0 0.0 0.00 0.11 0.00 92 1011.0
20260508092202 42 246 0.0 0.0 0.00 0.11 0.00 92 1011.3
20260508091204 42 246 0.0 1.0 0.00 0.11 0.00 92 1011.4
20260508090224 42 246 0.0 0.0 0.00 0.11 0.00 92 1011.3
20260508085245 42 246 0.0 1.0 0.00 0.11 0.00 92 1011.3
20260508084224 42 243 0.0 2.0 0.00 0.11 0.00 92 1011.5
20260508083203 42 244 0.0 0.0 0.00 0.11 0.00 92 1011.6
20260508082244 42 243 0.0 2.0 0.00 0.11 0.00 92 1011.6
20260508081203 41 261 1.0 3.0 0.00 0.11 0.00 92 1011.5
20260508080202 41 319 0.0 0.0 0.00 0.11 0.00 92 1011.6
20260508075203 41 319 0.0 0.0 0.00 0.11 0.00 92 1011.6
20260508074204 41 319 0.0 0.0 0.00 0.11 0.00 92 1011.5
20260508073224 40 319 0.0 0.0 0.00 0.11 0.00 92 1011.5
20260508072224 40 319 0.0 0.0 0.00 0.11 0.00 92 1011.6
20260508071203 40 319 0.0 0.0 0.00 0.11 0.00 91 1011.6
20260508070203 40 319 0.0 0.0 0.00 0.11 0.00 91 1011.6
20260508065224 40 319 0.0 0.0 0.00 0.11 0.00 91 1011.6
20260508064204 39 319 0.0 0.0 0.00 0.11 0.00 91 1011.8
20260508063203 39 319 0.0 0.0 0.00 0.11 0.00 91 1011.6
20260508062202 39 319 0.0 0.0 0.00 0.11 0.00 91 1011.7
20260508061203 39 319 0.0 0.0 0.00 0.11 0.00 91 1011.8
20260508060227 39 319 0.0 0.0 0.00 0.11 0.00 91 1011.8
20260508055223 39 319 0.0 0.0 0.00 0.11 0.00 90 1011.9
20260508054203 39 319 0.0 0.0 0.00 0.11 0.00 91 1011.9
20260508053202 38 319 0.0 0.0 0.00 0.11 0.00 90 1012.0
20260508052226 38 319 0.0 0.0 0.00 0.11 0.00 90 1011.8
20260508051202 38 319 0.0 0.0 0.00 0.11 0.00 90 1012.0
20260508050224 38 319 0.0 0.0 0.00 0.11 0.00 90 1012.0
20260508045202 39 319 0.0 0.0 0.00 0.11 0.00 90 1012.2
20260508044224 39 319 0.0 0.0 0.00 0.11 0.00 90 1012.3
20260508043202 39 319 0.0 0.0 0.00 0.11 0.00 90 1012.2
20260508042203 39 319 0.0 0.0 0.00 0.11 0.00 89 1012.2
20260508041202 39 319 0.0 0.0 0.00 0.11 0.00 89 1012.2
20260508040203 40 319 0.0 0.0 0.00 0.11 0.00 89 1012.2
20260508035202 40 319 0.0 0.0 0.00 0.11 0.11 89 1012.1
20260508034203 40 319 0.0 0.0 0.00 0.11 0.11 89 1012.2
20260508033203 40 319 0.0 0.0 0.00 0.11 0.11 89 1012.2
20260508032205 41 319 0.0 0.0 0.00 0.11 0.11 89 1012.2
20260508031225 41 319 0.0 0.0 0.00 0.11 0.11 89 1012.1
20260508030226 41 319 0.0 0.0 0.00 0.11 0.11 88 1012.1
20260508025202 42 319 0.0 0.0 0.01 0.10 0.10 88 1012.0
20260508024203 42 319 0.0 0.0 0.01 0.10 0.10 88 1011.9
20260508023225 43 319 0.0 0.0 0.01 0.10 0.10 88 1011.9
20260508022202 43 319 0.0 0.0 0.01 0.10 0.10 88 1011.8
20260508021203 43 317 0.0 3.0 0.01 0.10 0.10 88 1011.8
20260508020202 43 331 1.0 5.0 0.01 0.10 0.10 88 1012.0
20260508015206 43 294 0.0 9.0 0.08 0.08 0.08 87 1012.0
20260508014203 43 278 2.0 9.0 0.07 0.07 0.07 87 1012.1
20260508013202 44 291 0.0 7.0 0.07 0.07 0.07 86 1011.9
20260508012203 44 277 4.0 10.0 0.05 0.05 0.05 85 1012.0
20260508011203 44 264 1.0 8.0 0.03 0.03 0.03 85 1011.9
20260508010203 44 280 3.0 8.0 0.00 0.00 0.00 84 1011.6
20260508005204 44 325 0.0 0.0 0.00 0.00 0.00 83 1011.3
20260508004203 44 326 0.0 0.0 0.00 0.00 0.00 82 1011.1
20260508003203 44 326 0.0 3.0 0.00 0.00 0.00 82 1011.0
20260508002202 44 336 1.0 6.0 0.00 0.00 0.00 81 1010.9
20260508001203 45 323 0.0 12.0 0.00 0.00 0.00 79 1011.0
20260508000204 46 286 8.0 15.0 0.00 0.00 0.00 76 1011.2
20260507235203 47 298 6.0 14.0 0.00 0.00 0.00 72 1011.1
20260507234205 48 295 10.0 16.0 0.00 0.00 0.00 69 1011.1
20260507233202 49 310 7.0 13.0 0.00 0.00 0.00 66 1010.7
20260507232203 50 307 1.0 8.0 0.00 0.00 0.00 65 1010.5
20260507231202 50 313 0.0 5.0 0.00 0.00 0.00 65 1010.4
20260507230203 50 284 4.0 7.0 0.00 0.00 0.00 64 1010.3
20260507225202 50 301 1.0 5.0 0.00 0.00 0.00 64 1010.3
20260507224203 51 301 3.0 6.0 0.00 0.00 0.00 62 1010.3
20260507223203 51 305 3.0 6.0 0.00 0.00 0.00 62 1010.3
20260507222202 51 325 1.0 7.0 0.00 0.00 0.00 62 1010.3
20260507221203 51 291 3.0 9.0 0.00 0.00 0.00 63 1010.3
20260507220202 51 273 3.0 9.0 0.00 0.00 0.00 63 1010.4
20260507215203 51 274 1.0 7.0 0.00 0.00 0.00 64 1010.4
20260507214202 52 286 2.0 7.0 0.00 0.00 0.00 63 1010.4
20260507213224 51 279 1.0 8.0 0.00 0.00 0.00 65 1010.3
20260507212202 51 297 2.0 4.0 0.00 0.00 0.00 64 1010.4
20260507211203 51 327 0.0 3.0 0.00 0.00 0.00 63 1010.3
20260507210202 50 255 0.0 4.0 0.00 0.00 0.00 64 1010.4
20260507205203 50 308 2.0 7.0 0.00 0.00 0.00 63 1010.5
20260507204202 50 293 4.0 8.0 0.00 0.00 0.00 64 1010.6
20260507203204 50 303 3.0 7.0 0.00 0.00 0.00 65 1010.6
20260507202202 50 338 3.0 9.0 0.00 0.00 0.00 65 1010.6
20260507201203 51 319 5.0 13.0 0.00 0.00 0.00 61 1010.7
20260507200202 52 306 5.0 13.0 0.00 0.00 0.00 61 1010.7
20260507195203 53 327 3.0 10.0 0.00 0.00 0.00 60 1010.8
20260507194202 54 304 3.0 10.0 0.00 0.00 0.00 59 1010.9
20260507193203 54 15 2.0 12.0 0.00 0.00 0.00 63 1010.9
20260507192202 52 293 2.0 11.0 0.00 0.00 0.00 63 1010.9
20260507191203 51 279 4.0 11.0 0.00 0.00 0.00 66 1011.1
20260507190224 50 293 6.0 11.0 0.00 0.00 0.00 64 1011.2
20260507185246 49 349 6.0 14.0 0.00 0.00 0.00 65 1011.3
20260507184202 49 329 7.0 12.0 0.00 0.00 0.00 63 1011.3
20260507183224 49 306 7.0 14.0 0.00 0.00 0.00 64 1011.2
20260507182202 49 315 4.0 11.0 0.00 0.00 0.00 65 1011.4
20260507181203 49 305 5.0 10.0 0.00 0.00 0.00 66 1011.4
20260507180203 50 313 1.0 11.0 0.00 0.00 0.00 65 1011.2
20260507175203 50 302 1.0 3.0 0.00 0.00 0.00 64 1011.2
20260507174203 51 300 2.0 8.0 0.00 0.00 0.00 63 1011.2
20260507173203 51 334 3.0 9.0 0.00 0.00 0.00 62 1011.2
20260507172202 52 298 2.0 8.0 0.00 0.00 0.00 60 1011.2
20260507171203 52 307 3.0 9.0 0.00 0.00 0.00 59 1011.3